Hawk 6B

operational
NORAD ID: 55324 Int'l Des: 2023-011 Owner: HE360 Country: US
LEOCIRCULAR

Über Hawk 6B

Beschreibung wird geladen...

Live-Position

3D-Globus wird geladen...

Nächste Überflüge

Höhenverlauf

Altitude vs Time

uPlot chart will show altitude changes over time

Zweizeiliger Elementsatz

1 55324U 23011A 26063.48895218 .00009868 00000-0 43330-3 0 9995
2 55324 40.5118 242.2591 0002870 349.9866 10.0886 15.21824001171889
Epoch: 4. März 2026 • Age: 18 hours

Aktueller Status

Höhe 502.9 km
Geschwindigkeit 7.62 km/s
Subsatellitenpunkt 40.67°N, 108.67°W
Startdatum 24. Jan. 2023
Alter 3.1 years
Typ other

Technische Details

Klassifizierung Payload
Masse 31.00 kg
Trockenmasse 30.00 kg
Gesamtmasse 31.00 kg
Länge 0.45 m
Durchmesser 0.30 m
Spannweite 1.00 m
Form Box + 2 pan
Hersteller UTIAS
Bus-Typ Hawk2G
Phasenstatus In Orbit
Besitzer/Staat HE360/US

Große Konstellationen

Loading constellations...